This is the latest recevied weather packets stored in our database for station/object KD7CTY. If no packets are shown the sender has not sent any weather packets the latest 10 day(s).
| Time | Temp. | Humidity | Pressure | Rain* | Wind** | Luminosity | Snow |
|---|---|---|---|---|---|---|---|
| 1777618022 | 15° C | 67% | 1015.3 hPa | 0 mm | - | 0 W/m² | - |
| 1777617716 | 15° C | 67% | 1015.4 hPa | 0 mm | - | 0 W/m² | - |
| 1777617412 | 15° C | 66% | 1015.4 hPa | 0 mm | - | 0 W/m² | - |
| 1777617110 | 15° C | 66% | 1015.4 hPa | 0 mm | - | 0 W/m² | - |
| 1777616805 | 15° C | 67% | 1015.2 hPa | 0 mm | - | 0 W/m² | - |
| 1777616501 | 15° C | 66% | 1015.3 hPa | 0 mm | - | 0 W/m² | - |
| 1777616197 | 15° C | 66% | 1015.4 hPa | 0 mm | - | 0 W/m² | - |
| 1777615894 | 15° C | 68% | 1015.4 hPa | 0 mm | - | 0 W/m² | - |
| 1777615590 | 15.56° C | 67% | 1015.4 hPa | 0 mm | - | 0 W/m² | - |
| 1777615287 | 15.56° C | 66% | 1015.4 hPa | 0 mm | - | 0 W/m² | - |
| 1777614986 | 15.56° C | 67% | 1015.5 hPa | 0 mm | - | 0 W/m² | - |
| 1777614683 | 15.56° C | 67% | 1015.6 hPa | 0 mm | - | 0 W/m² | - |
| 1777614378 | 15.56° C | 68% | 1015.5 hPa | 0 mm | - | 0 W/m² | - |
| 1777614074 | 15.56° C | 66% | 1015.5 hPa | 0 mm | - | 0 W/m² | - |
| 1777613769 | 15.56° C | 66% | 1015.5 hPa | 0 mm | - | 0 W/m² | - |
| 1777613467 | 16.11° C | 66% | 1015.6 hPa | 0 mm | - | 0 W/m² | - |
| 1777613163 | 15.56° C | 66% | 1015.5 hPa | 0 mm | - | 0 W/m² | - |
| 1777612860 | 16.11° C | 66% | 1015.4 hPa | 0 mm | - | 0 W/m² | - |
| 1777612556 | 16.11° C | 66% | 1015.6 hPa | 0 mm | - | 0 W/m² | - |
| 1777612251 | 16.11° C | 66% | 1015.6 hPa | 0 mm | - | 0 W/m² | - |
| 1777611946 | 16.11° C | 67% | 1015.7 hPa | 0 mm | - | 0 W/m² | - |
| 1777611642 | 16.67° C | 65% | 1015.6 hPa | 0 mm | - | 0 W/m² | - |
| 1777611339 | 16.11° C | 66% | 1015.5 hPa | 0 mm | - | 0 W/m² | - |
| 1777611037 | 15.56° C | 68% | 1015.8 hPa | 0 mm | - | 0 W/m² | - |
| 1777610732 | 16.11° C | 67% | 1015.5 hPa | 0 mm | - | 0 W/m² | - |
* Rain latest hour (hover to see other rain measurements)
** Current wind speed in m/s (hover to see current wind gust speed)